Regional Weather Roundup
Issued by NWS

Home | Current Version | Previous Version | Graphics & Text | Print | Product List | Glossary Off
Versions: 1 2 3 4 5 6 7 8 9 10 11 12 13 14 15 16 17 18 19 20 21 22 23 24 25 26 27 28 29 30 31 32 33 34 35 36 37 38 39 40 41 42 43 44 45 46 47 48 49 50

000
ASUS43 KLSX 242110
RWRMO

WEATHER SUMMARY FOR MISSOURI
NATIONAL WEATHER SERVICE SPRINGFIELD MO
400 PM CDT SAT SEP 24 2016

NOTE: "FAIR" INDICATES FEW OR NO CLOUDS BELOW 12,000 FEET WITH NO
       SIGNIFICANT WEATHER AND/OR OBSTRUCTIONS TO VISIBILITY.
       CURRENT SKY AND/OR WEATHER CONDITIONS ARE NOT AVAILABLE FOR
       CHILLICOTHE AND FARMINGTON.

MOZ001>031-035>038-043-044-053-054-242200-
...NORTHERN AND WESTERN MISSOURI...

CITY           SKY/WX    TMP DP  RH WIND       PRES   REMARKS
KANSAS CTY INT MOSUNNY   87  68  52 S15       29.94S HX  90
KANSAS C DTWN  MOSUNNY   91  69  48 S15G22    29.92F HX  96
LEE`S SUMMIT   MOSUNNY   88  69  53 S15G24    29.95F HX  92
ST JOSEPH      MOSUNNY   88  69  53 S13G23    29.92S HX  92
CHILLICOTHE      N/A     89  70  53 S10       29.96F HX  94
KIRKSVILLE     CLOUDY    85  70  60 S7        30.02F

$$
MOZ066>068-077>081-088>096-101>105-242200-
...SOUTHWEST MISSOURI...

CITY           SKY/WX    TMP DP  RH WIND       PRES   REMARKS
SPRINGFIELD    MOSUNNY   89  64  43 SE13      30.00F HX  90
JOPLIN         PTSUNNY   86  69  56 S13       29.98F HX  90
BRANSON        PTSUNNY   86  68  54 S6        30.04F

$$
MOZ032>034-039>042-045>050-055>058-069>072-242200-
...CENTRAL MISSOURI...

CITY           SKY/WX    TMP DP  RH WIND       PRES   REMARKS
COLUMBIA       MOSUNNY   87  71  58 SE8       30.02F HX  93
JEFFERSON CITY MOSUNNY   88  72  58 SE12      30.00F HX  94
ROLLA          SUNNY     87  67  51 S9        30.04F HX  90
SEDALIA        LGT RAIN  79  71  76 S6G21     30.00F
WHITEMAN AFB   PTSUNNY   84  69  61 S8        29.97F
OSAGE BEACH    MOSUNNY   88  71  57 SE8       30.02F HX  94

$$
MOZ051-052-059>065-242200-
...EAST CENTRAL MISSOURI...

CITY           SKY/WX    TMP DP  RH WIND       PRES   REMARKS
ST LOUIS INTL  MOSUNNY   90  63  40 VRB5      30.04F HX  91
SPIRIT OF STL  MOSUNNY   89  66  46 CALM      30.03F HX  91
ST CHARLES     SUNNY     89  64  43 S9        30.02F HX  90

$$
MOZ072>076-082>087-097>100-106>115-242200-
...SOUTH CENTRAL AND SOUTHEAST MISSOURI...

CITY           SKY/WX    TMP DP  RH WIND       PRES   REMARKS
CAPE GIRARDEAU MOSUNNY   90  67  46 NE3       30.03F HX  93
FARMINGTON     SUNNY     88  68  51 S6        30.07F HX  91
WEST PLAINS    MOSUNNY   88  64  44 E8        30.07F

$$



USA.gov is the U.S. government's official web portal to all federal, state and local government web resources and services.